Regional Weather Roundup
Issued by NWS Cleveland, OH

Home | Current Version | Previous Version | Text Only | Print | Product List | Glossary Off
Versions: 1 2 3 4 5 6 7 8 9 10 11 12 13 14 15 16 17 18 19 20 21 22 23 24 25 26 27 28 29 30 31 32 33 34 35 36 37 38 39 40 41 42 43 44 45 46 47 48 49 50

000
ASUS41 KCLE 130810
RWRCLE
OHIO REGIONAL WEATHER ROUNDUP
NATIONAL WEATHER SERVICE CLEVELAND, OH
400 AM EDT SUN JUL 13 2014

NOTE: "FAIR" INDICATES FEW OR NO CLOUDS BELOW 12,000 FEET WITH NO
SIGNIFICANT WEATHER AND/OR OBSTRUCTIONS TO VISIBILITY.

OHZ001>008-015>018-024>027-034-035-043-044-130900-
   NORTHWEST OHIO

CITY           SKY/WX    TMP DP  RH WIND       PRES   REMARKS
DEFIANCE       CLOUDY    76  69  79 SW7       29.88F
FINDLAY        CLOUDY    77  68  73 SW13      29.90F
TOLEDO EXPRESS CLOUDY    74  69  85 SW8       29.86F
TOLEDO EXEC    CLOUDY    76  68  76 S10       29.88F
LIMA           CLOUDY    77  69  76 SW12      29.93F
$$

OHZ009>014-019>023-028>033-038-089-130900-
   NORTHEAST OHIO

CITY           SKY/WX    TMP DP  RH WIND       PRES   REMARKS
CLE-HOPKINS    CLOUDY    74  66  76 S14       29.93F
CLE-LAKEFRONT  CLOUDY    76  66  71 S15G23    29.89F
CUY CO. ARPT   NOT AVBL
LORAIN-ELYRIA  CLOUDY    78  66  66 SW9       29.92F
ASHTABULA      CLOUDY    74  62  66 SW14      29.95F
AKRON-CANTON   LGT RAIN  73  65  75 S8        29.98F
WOOSTER        CLOUDY    73  65  75 SW8       29.97F
MANSFIELD      CLOUDY    75  66  73 S12       29.96F
YOUNGSTOWN     CLOUDY    72  62  71 SW6       29.98F
$$

OHZ042-051>053-060>062-070>072-077>081-130900-
  SOUTHWEST OHIO

CITY           SKY/WX    TMP DP  RH WIND       PRES   REMARKS
CINC-COVINGTON CLOUDY    75  66  73 S8        30.01F
CINC-LUNKEN    CLOUDY    74  67  78 SW7       30.00F
HAMILTON       CLOUDY    76  68  76 VRB3      29.99F
DAYTON         CLOUDY    76  68  76 S10       29.99F
WRIGHT-PAT AFB NOT AVBL
DAYTON GENERAL CLOUDY    74  68  81 S9        29.99F
WILMINGTON     CLOUDY    74  65  73 S8        30.01F
$$

OHZ036-037-039>041-045>050-054>059-063>069-073>076-082>088-130900-
  CENTRAL AND SOUTHEAST OHIO

CITY           SKY/WX    TMP DP  RH WIND       PRES   REMARKS
COLUMBUS       CLOUDY    78  65  63 S9        29.99F
OSU AIRPORT    CLOUDY    76  66  71 S9        29.98F
BOLTON FIELD   CLOUDY    73  68  82 S9        30.00F
RICKENBACK AFB CLOUDY    75  64  67 S7        29.99F
NEWARK         CLOUDY    74  65  73 S7        29.99F
MARION         CLOUDY    75  67  76 SW13      29.96F
LANCASTER      MOCLDY    76  65  68 S5        30.01F
ZANESVILLE     CLOUDY    72  65  78 S5        30.00F
NEW PHILLY     LGT RAIN  71  66  84 SE3       30.00F
$$


USA.gov is the U.S. government's official web portal to all federal, state and local government web resources and services.